Powrót do katalogu

PIESAT-2 09

AktywnyNaukaSSO
NORAD 62333·PAYLOAD·🇨🇳 China

Wystrzelony Dec 16, 2024 z Taiyuan Satellite Launch Center

Loading…

Następne Przeloty (najbliższe 24 godziny)

TLE

ŚwieżeSource: Space-Track

Epoka: Sep 14, 2026, 14:16 UTC

1 62333U 24241A   26257.59446770  .00007030  00000-0  37624-3 0  9999
2 62333  97.5364 204.4107 0001931  96.3482 263.7970 15.15350260 96330

Śledź PIESAT-2 09 w czasie rzeczywistym z AllMySat

Download on the App Store